Regional Weather Roundup
Issued by NWS

Home | Current Version | Previous Version | Graphics & Text | Print | Product List | Glossary On
Versions: 1 2 3 4 5 6 7 8 9 10 11 12 13 14 15 16 17 18 19 20 21 22 23 24 25 26 27 28 29 30 31 32 33 34 35 36 37 38 39 40 41 42 43 44 45 46 47 48 49 50
000
ASUS45 KTFX 010919
RWRMT
MONTANA HOURLY WEATHER ROUNDUP
NATIONAL WEATHER SERVICE GREAT FALLS MT
219 AM MST SUN FEB 1 2015

NOTE: "FAIR" INDICATES FEW OR NO CLOUDS BELOW 12000 FEET WITH NO
SIGNIFICANT WEATHER AND/OR OBSTRUCTIONS TO VISIBILITY.

* THESE STATIONS ARE NOT UNDER NWS QUALITY CONTROL. THEY DO NOT
   REPORT WEATHER SUCH AS PRECIPITATION OR FOG.

MTZ001>007-043-011000-
WEST OF THE DIVIDE
CITY           SKY/WX    TMP DP  RH WIND       PRES   REMARKS
KALISPELL      CLEAR     19  12  74 NE9       30.25F WCI   8
MISSOULA       CLOUDY    28  21  75 SE6       30.25S WCI  21
BUTTE          PTCLDY    16  10  77 CALM      30.18R
MULLAN PASS    PTCLDY    21  18  88 SE10      30.10F WCI  10
* ANACONDA     PTCLDY    18  14  84 SW3        N/A
* ESSEX        N/A       15   7  70 SE2G8      N/A
* EUREKA APT   CLEAR     27  25  92 CALM      30.26F
* HAMILTON APT PTCLDY    25  19  78 S5        30.23S WCI  19
* LIBBY APT    CLEAR     25  25 100 CALM      30.27S
* LINCOLN      N/A        5   0  80 NW1        N/A
* LOOKOUT PASS N/A       21  20  96 N/A        N/A
* POLSON       N/A       22  21  96 N/A        N/A
* RONAN APT    CLEAR     27  27 100 N/A        N/A
* SEELEY LAKE  N/A       18  13  81 N1         N/A
* THOMP F APT  CLEAR     12   8  84 NE3        N/A
$$

MTZ008-052>055-011000-
SOUTHWEST MONTANA
CITY           SKY/WX    TMP DP  RH WIND       PRES   REMARKS
BOZEMAN        CLOUDY    18  12  77 SW3       30.26R
DILLON         PTCLDY    12   9  88 SW3       30.20R
* W YELLOWSTON PTCLDY    13  10  88 N/A        N/A
* THREE FORKS  MOCLDY    18  18 100 N/A        N/A
* BOULDER HILL N/A        8   4  84 N4         N/A
* MONIDA PASS  N/A       12  10  92 SE6        N/A   WCI   2
* RAYNOLDS PAS N/A       13  13 100 N1         N/A
* WHITEHALL    N/A       14   8  77 E2         N/A
* WISE RIVER   N/A       14   8  77 W2         N/A
$$

MTZ009>010-012-014-046-048-049-054-011000-
EAST SLOPES AND CENTRAL MONTANA
CITY           SKY/WX    TMP DP  RH WIND       PRES   REMARKS
CUT BANK       MOCLDY    -2  -4  91 S5        30.28F WCI -13
GREAT FALLS    FOG       -2  -2 100 SE5       30.33F WCI -13
HELENA         LGT SNOW  18   9  68 W5        30.31S WCI  11
MALMSTROM AFB  CLOUDY    -8 -11  86 S6        30.36F WCI -21
* CONRAD       MOCLDY    -6 -11  78 CALM       N/A
* DEARBORN     N/A        7   3  83 S2         N/A
* EAST GLACIER N/A        1  -2  87 NW2        N/A
* MONARCH      N/A       -2  -7  79 N1         N/A
* PENDROY      N/A        3   0  87 SW8        N/A   WCI -10
* ROGERS PASS  N/A        5   0  80 N/A        N/A
* SWEET GRASS  N/A       -2  -6  83 NW4        N/A
* WHITE SULPH  N/A       10   2  70 W2         N/A
$$

MTZ011-013-016-021-035-040-045-047-050-051-011000-
NORTH CENTRAL MONTANA
CITY           SKY/WX    TMP DP  RH WIND       PRES   REMARKS
HAVRE          CLOUDY    -8 -13  78 CALM      30.43S
* N BAR RANCH  CLOUDY     5   0  80 NW7       30.27R WCI  -7
* CHINOOK      CLOUDY    -8  -9  95 CALM      30.47S
* CHESTER      N/A       -8 -14  74 E2         N/A
* DENTON       N/A        1  -1  91 S4         N/A
* GEYSER       N/A        2  -2  83 NW2        N/A
* JUDITH GAP   N/A        5   4  96 N12        N/A   WCI -11
* LOMA         N/A       -4  -8  83 SW2        N/A
$$

MTZ017>020-022>027-061-062-011000-
NORTHEAST MONTANA
CITY           SKY/WX    TMP DP  RH WIND       PRES   REMARKS
GLASGOW        LGT SNOW   0  -6  75 NE5       30.47S WCI -11
GLENDIVE       MOCLDY    -2  -8  75 NE8       30.43R WCI -17
JORDAN         MOCLDY     3   0  87 CALM      30.42S
SIDNEY         MOCLDY    -2 -15  53 N7        30.52R WCI -15
WOLF POINT     CLOUDY     1  -6  72 CALM      30.52R
* BEAVER HILL  N/A       -3  -7  83 VRB6       N/A   WCI -15
* CIRCLE       N/A        0  -3  87 N4         N/A
* LINDSAY DVD  N/A       -2  -6  83 NW5        N/A   WCI -13
* NAVAJO       N/A       -7 -11  82 NW2        N/A
* PLENTYWOOD A CLEAR     -6  -9  87 NW3       30.47R
* POPLAR APT   CLEAR      0  -8  68 N/A       30.51R
* SACO         N/A        1  -2  87 N/A        N/A
$$

MTZ028>042-056>058-011000-
SOUTHCENTRAL AND SOUTHEAST MONTANA
CITY           SKY/WX    TMP DP  RH WIND       PRES   REMARKS
BAKER          LGT SNOW   0  -4  83 N5        30.35R VSB 3    WCI -11
BILLINGS       LGT SNOW   9   7  91 NE6       30.33R WCI  -1
LIVINGSTON     CLOUDY    18  10  71 W3        30.23R
MILES CITY     CLOUDY     1  -2  87 NW5       30.41R WCI  -9
* BIG TIMBER A MOCLDY    12   9  88 E5        30.26R WCI   4
* FORSYTH APT  PTCLDY     5   1  83 CALM      30.42R VSB 3
* LAUREL APT   MOCLDY    10   3  73 NE5        N/A   WCI   1
* ROUNDUP APT  PTCLDY     9   0  66 N/A        N/A
* ALZADA       N/A        3   0  87 NW4        N/A
* HYSHAM       N/A        3   0  87 NE1        N/A
* LAME DEER    N/A        1  -3  83 NW6        N/A   WCI -11
* REED POINT   N/A       14  11  88 NE4        N/A
* ROSCOE HILL  N/A        9   5  84 N1         N/A
$$

REGIONAL REPORTS...DAKOTAS
CITY           SKY/WX    TMP DP  RH WIND       PRES   REMARKS
WILLISTON      MOCLDY    -4 -11  71 NE5       30.50S WCI -15
DICKINSON      LGT SNOW  -2  -9  72 N8        30.36R VSB 2 1/2 WCI -17
BEACH          LGT SNOW  -2  -4  91 N5        30.39R WCI -13
CROSBY         CLEAR     -8 -13  78 SE3       30.50F
TIOGA          CLEAR     -8 -13  78 N3        30.48F
WATFORD CITY   CLEAR     -4 -11  71 N7        30.46S WCI -18
BISMARCK       LGT SNOW  -6 -11  78 N12       30.47R VSB 2    WCI -25
GRAND FORKS    PTCLDY    -9 -18  64 N15       30.57R WCI -31
FARGO          CLOUDY    -2 -11  65 N21       30.46R WCI -25
BUFFALO SD     PTCLDY     0  -6  75 NW5       30.23R WCI -11
RAPID CITY     CLOUDY     7   1  76 N14       30.23R WCI -10
$$

REGIONAL REPORTS...WYOMING/IDAHO/WASHINGTON
CITY           SKY/WX    TMP DP  RH WIND       PRES   REMARKS
GILLETTE       CLOUDY     9   3  76 N18       30.18R WCI  -9
SHERIDAN       CLOUDY    12   5  73 NW14      30.27R WCI  -4
CODY           CLOUDY    12  12 100 N14       30.18R WCI  -4
YELLOWSTONE LA PTCLDY     3   0  87 CALM      30.11R
SALMON         CLOUDY    23  19  85 CALM      30.26R
MULLAN PASS    PTCLDY    21  18  88 SE10      30.10S WCI  10
SAND POINT     CLOUDY    32  32 100 NE7       30.27F WCI  25
SPOKANE        CLOUDY    28  28 100 NE5       30.23F WCI  22
$$

REGIONAL REPORTS...ALBERTA
CITY           SKY/WX    TMP DP  RH WIND       PRES   REMARKS
CALGARY        N/A        3  -2  79 SW8       30.21F WCI -10
LETHBRIDGE     CLEAR     -9 -15  74 S6        30.31F WCI -23
MEDICINE HAT   CLEAR     -8 -11  86 SW8       30.42F WCI -24
EDMONTON       N/A       -4  -9  79 SE5       30.30F WCI -15
WATERTON GATE  N/A       -9 -13  82 CALM       N/A
CARDSTON       N/A        3   0  87 S3         N/A
MILK RIVER     N/A       -8 -11  86 SW1        N/A
$$

REGIONAL REPORTS...SASKATCHEWAN
CITY           SKY/WX    TMP DP  RH WIND       PRES   REMARKS
SWIFT CURRENT  CLEAR     -6 -11  78 SW9       30.37F WCI -22
REGINA         PTCLDY    -9 -13  82 NW2       30.50F
VAL MARIE      N/A      -17 -20  86 W2         N/A
ASSINIBOIA     N/A       -8 -11  86 SW2        N/A
CORONACH       N/A       -9 -15  74 W5         N/A   WCI -21

$$



USA.gov is the U.S. government's official web portal to all federal, state and local government web resources and services.